User: anonymous   Login
Location: NJAA Observatory
(40.6819°N, 74.8979°W)
Time: 05:34:27
(UTC-04:00)
Language:

Cosmos 1328 Rocket - Orbit

View from above orbital plane
View from above orbital plane
View from above satellite
View from above satellite

Ground track
Ground track

The orbit data is extracted from the following two-line orbital elements,

1 12988U 81117B   16183.09485303  .00000092  00000-0  80064-5 0  9991
2 12988  82.5241  42.6567 0016654 289.3436 182.2011 14.84591856867725
Epoch (UTC): 01 July 2016 02:16:35
Eccentricity: 0.0016654
inclination: 82.5241°
perigee height: 603 km
apogee height: 626 km
right ascension of ascending node: 42.6567°
argument of perigee: 289.3436°
revolutions per day: 14.84591856
mean anomaly at epoch: 182.2011°
orbit number at epoch: 86772

The dashed part of the orbit path shows where the satellite is in the earth's shadow,  

DLR